Location: Falniów
(50.3639°N, 19.9642°E)
Time: 18:16:06
(UTC+00:00)

Cosmos 2344 - Pass Details

Date: 18 January 2026
Orbit: 1195 x 3047 km, 63.3° (Epoch: 16 February)

Event Time Altitude Azimuth Distance (km) Brightness Sun altitude
Exits shadow 05:39:56 - 315° (NW) 3,505 5.3 -8.2°
Reaches altitude 10° 05:40:45 10° 317° (NW) 3,223 5.1 -8.1°
Maximum altitude 05:48:14 58° 37° (NE) 1,629 4.3 -7.0°
Drops below altitude 10° 05:57:56 10° 115° (ESE) 4,134 8.2 -5.6°
Sets 06:01:43 0° 120° (ESE) 5,389 9.8 -5.0°
